AgMet,15min,monroe,124,12JAN2019:00:00:00,12.66,23.43,23.80,24.41,23.19,95,97,92,0.4180,22.62,2.1,1.7,317,5.12,3.1,6.10,.,0.0116,-.000130,-.000169
AgMet,15min,monroe,124,12JAN2019:00:15:00,12.65,23.37,23.39,23.92,22.88,97,98,96,0.4150,22.66,1.4,2.2,309,10.45,3.1,6.10,.,0.0116,-.000120,-.000151
AgMet,15min,monroe,124,12JAN2019:00:30:00,12.65,23.25,23.64,24.10,23.19,98,99,97,0.4180,23.23,0.8,0.9,66,11.15,1.8,6.10,.,0.0233,-.000159,-.000223
AgMet,15min,monroe,124,12JAN2019:00:45:00,12.64,22.95,23.03,23.31,22.70,98,99,98,0.4140,22.63,0.5,0.7,79,11.60,2.0,6.10,.,0.0349,-.000165,-.000238
AgMet,15min,monroe,124,12JAN2019:01:00:00,12.64,24.05,23.39,24.11,22.76,99,100,99,0.4390,23.23,0.4,0.2,190,42.16,1.8,6.10,.,0.0465,-.000185,-.000285
AgMet,15min,monroe,124,12JAN2019:01:15:00,12.64,24.35,24.23,24.60,23.74,99,100,98,0.4350,23.93,0.5,0.6,220,22.65,1.5,6.10,.,0.0581,-.000173,-.000252
AgMet,15min,monroe,124,12JAN2019:01:30:00,12.64,22.59,23.65,24.48,22.40,97,98,96,0.4040,22.93,1.9,1.0,132,20.72,3.3,6.11,.,0.0581,-.000156,-.000217
AgMet,15min,monroe,124,12JAN2019:01:45:00,12.63,23.02,23.06,23.32,22.59,98,99,97,0.4100,22.52,2.4,2.4,138,10.10,3.3,6.11,.,0.0581,-.000116,-.000143
AgMet,15min,monroe,124,12JAN2019:02:00:00,12.63,22.84,22.48,23.02,21.74,97,99,97,0.4120,21.75,2.2,2.3,200,17.03,3.3,6.11,.,0.0465,-.000114,-.000142
AgMet,15min,monroe,124,12JAN2019:02:15:00,12.61,22.72,22.87,23.33,22.35,98,99,97,0.4050,22.35,1.8,1.8,283,31.28,2.4,6.11,.,0.0581,-.000128,-.000165
AgMet,15min,monroe,124,12JAN2019:02:30:00,12.61,22.83,22.95,23.39,22.59,98,99,97,0.4080,22.43,0.9,1.5,328,6.65,1.8,6.11,.,0.0465,-.000137,-.000180
AgMet,15min,monroe,124,12JAN2019:02:45:00,12.61,23.63,23.43,23.70,22.71,98,99,97,0.4270,23.04,0.0,0.3,281,11.80,0.7,6.11,.,0.0465,-.000181,-.000274
AgMet,15min,monroe,124,12JAN2019:03:00:00,12.6,21.98,22.91,23.63,21.92,98,99,97,0.3970,22.43,1.1,0.3,168,51.18,3.1,6.11,.,0.0349,-.000181,-.000277
AgMet,15min,monroe,124,12JAN2019:03:15:00,12.59,22.90,22.59,23.15,21.80,99,100,98,0.4140,22.39,2.4,2.1,174,11.01,3.5,6.11,.,0.0233,-.000123,-.000155
AgMet,15min,monroe,124,12JAN2019:03:30:00,12.59,23.09,23.18,23.51,22.78,98,99,98,0.4130,22.77,0.4,1.4,201,9.79,1.5,6.11,.,0.0349,-.000142,-.000190
AgMet,15min,monroe,124,12JAN2019:03:45:00,12.59,21.74,21.94,23.09,21.56,97,98,96,0.3930,21.19,1.6,0.7,165,20.94,2.6,6.11,.,0.0349,-.000157,-.000224
AgMet,15min,monroe,124,12JAN2019:04:00:00,12.58,23.45,22.43,23.58,21.50,99,100,98,0.4260,22.16,1.2,1.6,219,6.71,2.0,6.12,.,0.0349,-.000134,-.000176
AgMet,15min,monroe,124,12JAN2019:04:15:00,12.57,20.28,22.08,23.58,20.28,97,99,97,0.3630,21.37,1.3,1.0,351,39.65,2.9,6.12,.,0.0233,-.000147,-.000203
AgMet,15min,monroe,124,12JAN2019:04:30:00,12.57,20.15,20.20,20.52,19.85,98,99,96,0.3690,19.62,0.7,1.0,109,71.37,2.0,6.12,.,0.0233,-.000140,-.000193
AgMet,15min,monroe,124,12JAN2019:04:45:00,12.57,22.35,21.10,22.35,19.79,100,100,99,0.4100,21.02,0.9,0.8,240,26.35,2.4,6.12,.,0.0233,-.000154,-.000219
AgMet,15min,monroe,124,12JAN2019:05:00:00,12.56,20.40,21.77,22.54,20.40,100,100,98,0.3710,21.72,0.2,0.6,269,28.02,1.5,6.11,.,0.0116,-.000162,-.000234
AgMet,15min,monroe,124,12JAN2019:05:15:00,12.56,21.19,20.89,21.38,20.15,99,100,98,0.3910,20.69,0.1,0.1,155,0.78,1.1,6.12,.,0.0116,-.000177,-.000276
AgMet,15min,monroe,124,12JAN2019:05:30:00,12.55,19.54,20.60,21.25,19.48,100,100,99,0.3610,20.55,0.0,0.0,112,17.95,1.8,6.12,.,0.0116,-.000181,-.000289
AgMet,15min,monroe,124,12JAN2019:05:45:00,12.54,20.09,19.74,20.15,19.30,99,100,99,0.3720,19.52,0.1,0.1,131,1.96,0.9,6.12,.,0.0233,-.000174,-.000273
AgMet,15min,monroe,124,12JAN2019:06:00:00,12.53,22.23,20.71,22.23,19.79,100,100,100,0.4080,20.71,0.9,0.3,243,35.38,2.4,6.12,.,0.0233,-.000171,-.000262
AgMet,15min,monroe,124,12JAN2019:06:15:00,12.53,21.56,22.12,22.48,21.13,98,100,93,0.3690,21.57,1.4,1.3,251,11.13,2.0,6.12,.,0.0349,-.000139,-.000187
AgMet,15min,monroe,124,12JAN2019:06:30:00,12.52,20.89,20.87,21.50,20.28,93,94,90,0.3590,19.15,0.5,1.1,189,19.21,2.2,6.12,.,0.0349,-.000137,-.000187
AgMet,15min,monroe,124,12JAN2019:06:45:00,12.52,20.40,20.65,21.31,20.09,93,95,92,0.3480,18.93,1.0,0.8,149,12.71,3.1,6.12,.,0.0349,-.000148,-.000209
AgMet,15min,monroe,124,12JAN2019:07:00:00,12.51,20.15,20.30,21.19,19.72,93,95,92,0.3490,18.63,0.8,0.6,212,86.80,2.9,6.12,.,0.0465,-.000153,-.000222
AgMet,15min,monroe,124,12JAN2019:07:15:00,12.5,19.79,19.72,20.28,19.05,94,95,93,0.3500,18.19,2.1,1.4,157,10.16,4.4,6.12,.,0.0698,-.000123,-.000162
AgMet,15min,monroe,124,12JAN2019:07:30:00,12.49,22.48,21.03,22.48,19.30,96,98,94,0.3870,20.04,0.5,1.5,267,29.96,2.9,6.13,.,0.2558,-.000127,-.000167
AgMet,15min,monroe,124,12JAN2019:07:45:00,12.49,23.09,22.68,23.15,22.11,90,94,87,0.3690,20.28,2.1,1.0,250,24.89,3.9,6.13,.,2.1395,-.000143,-.000197
AgMet,15min,monroe,124,12JAN2019:08:00:00,12.48,21.86,22.44,23.21,21.86,88,90,86,0.3570,19.43,2.3,2.4,224,13.09,3.7,6.13,.,6.8256,-.000068,-.000046
AgMet,15min,monroe,124,12JAN2019:08:15:00,12.49,20.28,19.99,21.86,19.17,90,94,86,0.3500,17.63,1.7,1.9,51,30.97,3.5,6.13,.,13.6395,-.000024,-.000010
AgMet,15min,monroe,124,12JAN2019:08:30:00,13.03,22.96,21.71,23.09,20.15,90,93,86,0.3640,19.30,0.7,1.2,1,88.60,2.6,6.13,.,73.5116,-.000060,-.000053
AgMet,15min,monroe,124,12JAN2019:08:45:00,13.77,25.78,24.41,25.78,22.90,87,89,84,0.3960,21.02,1.3,1.1,258,14.48,3.5,6.14,.,124.5349,.0001171,.0001391
AgMet,15min,monroe,124,12JAN2019:09:00:00,14.09,25.17,25.23,25.90,24.68,83,85,82,0.3940,20.90,2.6,1.8,103,50.45,5.7,6.15,.,164.5349,.0002734,.0003203
AgMet,15min,monroe,124,12JAN2019:09:15:00,13.95,25.53,25.36,25.90,24.86,85,87,81,0.3820,21.53,3.4,3.3,97,8.63,4.8,6.15,.,204.1860,.0004084,.0004779
AgMet,15min,monroe,124,12JAN2019:09:30:00,13.92,27.30,26.53,27.55,25.41,81,85,76,0.3880,21.57,2.1,2.9,98,32.57,3.9,6.15,.,242.3256,.0005627,.0006499
AgMet,15min,monroe,124,12JAN2019:09:45:00,13.91,27.23,27.60,28.40,26.93,75,77,71,0.3880,20.58,1.8,1.8,154,20.68,3.9,6.16,.,279.4186,.0007294,.0008235
AgMet,15min,monroe,124,12JAN2019:10:00:00,13.91,28.69,27.90,28.69,27.23,80,84,76,0.4230,22.39,2.8,2.2,140,16.71,4.6,6.16,.,316.7442,.0008571,.0009583
AgMet,15min,monroe,124,12JAN2019:10:15:00,13.91,28.32,28.57,28.93,28.08,78,82,75,0.4020,22.55,3.8,3.3,147,13.02,7.0,6.16,.,351.6279,.0009858,.0011189
AgMet,15min,monroe,124,12JAN2019:10:30:00,13.91,29.67,28.91,30.03,27.95,76,81,72,0.3980,22.41,3.3,3.8,146,19.36,5.7,6.15,.,383.4884,.0011015,.0012575
AgMet,15min,monroe,124,12JAN2019:10:45:00,13.91,30.09,30.04,30.89,29.42,71,74,68,0.3920,21.65,2.6,2.7,150,19.48,5.7,6.15,.,411.3953,.0012761,.0014403
AgMet,15min,monroe,124,12JAN2019:11:00:00,13.91,31.87,30.91,32.23,29.97,67,71,64,0.3980,21.34,1.9,2.4,170,39.05,4.2,6.15,.,437.4419,.0014146,.0015923
AgMet,15min,monroe,124,12JAN2019:11:15:00,13.9,32.17,31.56,32.35,30.89,66,71,63,0.4350,21.42,2.8,2.2,158,21.46,6.1,6.15,.,460.4651,.0015337,.0017172
AgMet,15min,monroe,124,12JAN2019:11:30:00,13.89,32.28,31.91,32.65,31.25,65,71,63,0.4130,21.58,2.7,2.8,144,23.51,5.9,6.15,.,479.7674,.0016103,.0018205
AgMet,15min,monroe,124,12JAN2019:11:45:00,13.89,31.85,31.74,32.47,31.30,66,69,63,0.3960,21.51,3.4,3.1,119,28.99,6.6,6.15,.,495.1163,.0016549,.0018759
AgMet,15min,monroe,124,12JAN2019:12:00:00,13.89,32.28,32.12,32.65,31.67,65,68,63,0.3970,21.82,3.0,3.2,154,29.80,6.4,6.15,.,507.9070,.0017177,.0019450
AgMet,15min,monroe,124,12JAN2019:12:15:00,13.89,33.56,32.75,33.56,32.09,63,67,60,0.4130,21.66,2.3,2.7,175,61.64,5.3,6.15,.,516.2791,.0017933,.0020192
AgMet,15min,monroe,124,12JAN2019:12:30:00,13.89,34.04,33.98,35.32,32.82,60,64,58,0.4020,21.60,1.5,1.7,124,45.08,4.8,6.15,.,520.6977,.0018900,.0020943
AgMet,15min,monroe,124,12JAN2019:12:45:00,13.89,35.45,34.89,35.57,34.04,60,63,56,0.3910,22.23,2.0,1.8,165,31.77,5.0,6.15,.,523.2558,.0019338,.0021508
AgMet,15min,monroe,124,12JAN2019:13:00:00,13.89,35.32,35.56,36.18,35.08,58,61,56,0.4040,22.14,1.6,1.9,153,40.36,4.8,6.15,.,520.2326,.0019502,.0021749
AgMet,15min,monroe,124,12JAN2019:13:15:00,13.88,36.12,36.06,36.73,35.26,55,59,52,0.3850,21.65,2.2,1.7,159,27.92,4.6,6.15,.,514.4186,.0019497,.0021742
AgMet,15min,monroe,124,12JAN2019:13:30:00,13.87,37.89,36.61,38.26,35.87,52,56,48,0.3720,20.67,1.2,2.1,199,64.83,3.9,6.15,.,504.0698,.0019304,.0021830
AgMet,15min,monroe,124,12JAN2019:13:45:00,13.87,36.61,37.31,38.32,36.36,52,56,48,0.3970,21.29,1.4,0.8,13,67.82,4.8,6.15,.,488.2558,.0018796,.0020585
AgMet,15min,monroe,124,12JAN2019:14:00:00,13.85,37.03,36.81,37.40,36.05,55,59,52,0.4080,22.10,2.7,2.2,21,29.31,6.1,6.15,.,470.4651,.0017829,.0020237
AgMet,15min,monroe,124,12JAN2019:14:15:00,13.83,37.76,37.04,37.76,36.60,55,58,54,0.4200,22.44,3.2,3.3,23,19.08,7.7,6.15,.,449.8837,.0017063,.0019930
AgMet,15min,monroe,124,12JAN2019:14:30:00,13.81,38.11,38.19,38.55,37.64,54,56,52,0.4040,22.96,3.9,3.1,50,23.57,7.9,6.14,.,426.8605,.0016499,.0019362
AgMet,15min,monroe,124,12JAN2019:14:45:00,13.79,38.66,38.36,38.84,37.87,52,55,50,0.4360,22.44,5.5,4.7,16,13.85,9.6,6.14,.,400.3488,.0015792,.0019432
AgMet,15min,monroe,124,12JAN2019:15:00:00,13.77,38.72,38.75,39.15,38.29,52,55,48,0.4080,22.58,6.2,5.9,30,14.76,10.7,6.14,.,371.0465,.0015049,.0019239
AgMet,15min,monroe,124,12JAN2019:15:15:00,13.76,38.96,38.91,39.51,38.47,52,55,49,0.4220,22.90,6.3,6.2,38,17.32,11.8,6.13,.,338.9535,.0013891,.0018128
AgMet,15min,monroe,124,12JAN2019:15:30:00,13.76,38.90,38.86,39.33,38.47,52,55,50,0.4150,22.76,6.6,6.5,31,11.60,10.3,6.13,.,304.7674,.0012653,.0016938
AgMet,15min,monroe,124,12JAN2019:15:45:00,13.75,38.47,38.63,39.15,38.23,55,59,51,0.4630,23.66,7.4,7.0,28,10.72,10.5,6.13,.,268.3721,.0011121,.0015280
AgMet,15min,monroe,124,12JAN2019:16:00:00,13.75,37.68,37.97,38.72,37.56,58,60,57,0.4530,24.57,7.7,7.6,27,8.36,10.3,6.13,.,228.4884,.0009321,.0013242
AgMet,15min,monroe,124,12JAN2019:16:15:00,13.75,37.07,37.35,37.80,36.95,59,60,57,0.4390,24.23,8.7,8.1,21,7.63,12.5,6.12,.,191.7442,.0007966,.0011845
AgMet,15min,monroe,124,12JAN2019:16:30:00,13.75,36.58,36.93,37.31,36.58,59,61,58,0.4370,24.14,8.1,8.5,18,8.12,12.3,6.12,.,155.1163,.0006683,.0010510
AgMet,15min,monroe,124,12JAN2019:16:45:00,13.76,35.85,36.26,36.70,35.85,60,62,59,0.4430,23.89,7.8,8.2,25,7.40,12.1,6.11,.,115.6977,.0005040,.0008567
AgMet,15min,monroe,124,12JAN2019:17:00:00,13.8,34.99,35.55,35.97,34.99,62,64,61,0.4410,23.99,6.9,7.0,36,6.81,9.9,6.11,.,79.8488,.0003041,.0005921
AgMet,15min,monroe,124,12JAN2019:17:15:00,13,32.61,33.87,35.18,32.49,70,76,64,0.4750,25.12,8.2,7.5,39,7.30,13.4,6.11,.,27.2209,.0000662,.0002872
AgMet,15min,monroe,124,12JAN2019:17:30:00,12.88,31.21,31.87,32.67,31.08,77,80,75,0.4700,25.49,8.1,8.2,43,7.31,11.4,6.10,.,7.2791,.0000990,.0002724
AgMet,15min,monroe,124,12JAN2019:17:45:00,12.85,30.47,30.83,31.39,30.35,81,82,79,0.4680,25.61,8.4,8.2,42,7.29,12.3,6.10,.,2.0698,.0000181,.0000308
AgMet,15min,monroe,124,12JAN2019:18:00:00,12.83,29.20,29.72,30.53,29.01,85,88,82,0.4800,25.76,7.7,8.1,41,7.58,11.6,6.09,.,0.1977,-.000006,.0000026
AgMet,15min,monroe,124,12JAN2019:18:15:00,12.81,28.66,28.85,29.20,28.48,90,91,88,0.4860,26.20,7.7,7.6,40,8.80,11.6,6.09,.,0.0233,-.000032,-.000029
AgMet,15min,monroe,124,12JAN2019:18:30:00,12.8,28.30,28.45,28.72,28.18,92,92,91,0.4840,26.32,8.6,8.0,30,7.62,12.5,6.09,.,0.0116,-.000037,-.000036
AgMet,15min,monroe,124,12JAN2019:18:45:00,12.78,27.32,27.88,28.42,27.26,93,95,92,0.4790,26.09,8.4,8.8,32,7.70,12.5,6.09,.,0.0233,-.000037,-.000036
AgMet,15min,monroe,124,12JAN2019:19:00:00,12.77,26.84,26.97,27.38,26.72,96,97,95,0.4770,26.01,8.9,8.1,30,7.49,16.4,6.09,.,0.0116,-.000055,-.000057
AgMet,15min,monroe,124,12JAN2019:19:15:00,12.76,25.99,26.34,26.90,25.87,98,99,96,0.4730,25.86,8.3,9.3,34,7.69,13.6,6.10,.,0.0116,-.000056,-.000058
AgMet,15min,monroe,124,12JAN2019:19:30:00,12.76,25.26,25.66,25.99,25.26,100,100,99,0.4630,25.58,7.3,7.5,36,10.15,11.2,6.09,.,0.0116,-.000072,-.000078
AgMet,15min,monroe,124,12JAN2019:19:45:00,12.75,25.26,25.15,25.44,24.96,100,100,100,0.4630,25.15,6.1,6.7,22,9.33,10.1,6.09,.,0.0116,-.000077,-.000084
AgMet,15min,monroe,124,12JAN2019:20:00:00,12.74,25.14,25.28,25.45,24.96,100,100,100,0.4610,25.28,7.9,6.9,22,8.66,11.8,6.10,.,0.0349,-.000077,-.000083
AgMet,15min,monroe,124,12JAN2019:20:15:00,12.74,25.14,25.18,25.45,24.96,100,100,100,0.4610,25.18,8.1,8.1,30,8.15,12.1,6.10,.,0.0349,-.000069,-.000073
AgMet,15min,monroe,124,12JAN2019:20:30:00,12.73,24.90,25.07,25.57,24.78,100,100,100,0.4570,25.08,9.2,8.6,31,7.97,12.9,6.10,.,0.0349,-.000066,-.000070
AgMet,15min,monroe,124,12JAN2019:20:45:00,12.72,24.65,24.92,25.20,24.59,100,100,100,0.4520,24.92,8.8,9.1,29,7.94,12.5,6.10,.,0.0465,-.000063,-.000066
AgMet,15min,monroe,124,12JAN2019:21:00:00,12.72,24.90,24.85,25.08,24.53,100,100,100,0.4570,24.86,8.4,8.6,19,8.21,13.2,6.10,.,0.0349,-.000065,-.000069
AgMet,15min,monroe,124,12JAN2019:21:15:00,12.71,24.78,24.87,25.14,24.65,100,100,100,0.4540,24.87,8.3,8.3,24,8.14,11.0,6.10,.,0.0465,-.000067,-.000071
AgMet,15min,monroe,124,12JAN2019:21:30:00,12.71,25.02,24.88,25.14,24.53,100,100,100,0.4590,24.88,7.7,8.2,17,7.75,11.0,6.11,.,0.0465,-.000068,-.000072
AgMet,15min,monroe,124,12JAN2019:21:45:00,12.7,25.14,25.14,25.39,24.90,100,100,100,0.4610,25.14,6.8,7.0,14,8.70,9.4,6.11,.,0.0465,-.000075,-.000082
AgMet,15min,monroe,124,12JAN2019:22:00:00,12.69,25.27,25.22,25.45,25.02,100,100,100,0.4640,25.22,6.2,6.6,26,8.08,8.3,6.11,.,0.0349,-.000078,-.000085
AgMet,15min,monroe,124,12JAN2019:22:15:00,12.69,25.33,25.24,25.51,25.02,100,100,100,0.4650,25.24,6.1,6.2,15,12.15,8.1,6.11,.,0.0349,-.000082,-.000090
AgMet,15min,monroe,124,12JAN2019:22:30:00,12.69,25.14,25.17,25.45,24.96,100,100,100,0.4610,25.17,6.0,6.0,354,11.39,7.9,6.11,.,0.0349,-.000083,-.000092
AgMet,15min,monroe,124,12JAN2019:22:45:00,12.68,25.02,25.14,25.39,24.90,100,100,100,0.4590,25.14,4.8,5.3,359,15.76,9.9,6.11,.,0.0349,-.000089,-.000100
AgMet,15min,monroe,124,12JAN2019:23:00:00,12.68,24.78,24.87,25.14,24.59,100,100,100,0.4540,24.88,5.9,5.3,4,9.72,8.6,6.11,.,0.0349,-.000088,-.000099
AgMet,15min,monroe,124,12JAN2019:23:15:00,12.68,24.96,24.77,25.08,24.53,100,100,100,0.4580,24.77,4.1,5.1,343,15.83,5.9,6.11,.,0.0233,-.000090,-.000102
AgMet,15min,monroe,124,12JAN2019:23:30:00,12.67,24.65,24.71,25.08,24.41,100,100,100,0.4520,24.71,5.0,4.4,0,10.44,8.1,6.11,.,0.0349,-.000097,-.000112
AgMet,15min,monroe,124,12JAN2019:23:45:00,12.67,24.59,24.57,24.84,24.35,100,100,100,0.4510,24.57,4.1,4.8,354,13.97,5.9,6.11,.,0.0349,-.000092,-.000104
AgMet,15min,evanston,130,12JAN2019:00:00:00,12.52,-0.81,-1.03,-0.68,-1.30,77,78,77,0.1130,-6.42,8.0,8.5,208,4.27,10.1,13.16,.,0.0000,.0000152,.0000195
AgMet,15min,evanston,130,12JAN2019:00:15:00,12.52,-1.67,-1.31,-0.81,-1.79,77,77,77,0.1080,-6.76,7.5,7.7,209,4.49,9.4,13.15,.,0.0000,.0000131,.0000174
AgMet,15min,evanston,130,12JAN2019:00:30:00,12.51,-1.42,-1.75,-1.30,-2.03,77,77,77,0.1090,-7.25,6.8,7.0,204,4.10,8.6,13.15,.,0.0000,.0000108,.0000150
AgMet,15min,evanston,130,12JAN2019:00:45:00,12.51,-2.16,-1.76,-1.30,-2.28,77,77,76,0.1050,-7.29,7.6,7.2,203,3.52,9.2,13.15,.,0.0000,.0000117,.0000159
AgMet,15min,evanston,130,12JAN2019:01:00:00,12.5,-1.97,-2.41,-1.85,-2.77,76,77,76,0.1060,-8.04,7.5,7.5,202,4.58,9.4,13.15,.,0.0000,.0000131,.0000173
AgMet,15min,evanston,130,12JAN2019:01:15:00,12.5,-2.65,-2.49,-1.91,-2.89,76,77,76,0.1020,-8.14,7.0,7.4,208,4.55,9.2,13.15,.,0.0000,.0000127,.0000169
AgMet,15min,evanston,130,12JAN2019:01:30:00,12.48,-2.77,-2.69,-2.34,-3.08,76,77,76,0.1010,-8.35,7.0,6.8,202,4.95,8.3,13.15,.,0.0000,.0000107,.0000148
AgMet,15min,evanston,130,12JAN2019:01:45:00,12.48,-2.89,-2.73,-2.28,-3.14,76,77,76,0.1000,-8.41,7.4,7.2,202,4.74,9.6,13.15,.,0.0000,.0000120,.0000162
AgMet,15min,evanston,130,12JAN2019:02:00:00,12.47,-3.38,-2.96,-2.52,-3.51,76,76,75,0.0970,-8.67,7.5,7.6,201,4.29,9.9,13.15,.,0.0000,.0000133,.0000175
AgMet,15min,evanston,130,12JAN2019:02:15:00,12.47,-3.87,-3.77,-3.14,-4.12,75,76,75,0.0950,-9.60,6.5,7.1,204,5.62,9.4,13.15,.,0.0000,.0000122,.0000164
AgMet,15min,evanston,130,12JAN2019:02:30:00,12.46,-4.36,-4.10,-3.63,-4.48,75,76,75,0.0920,-9.97,6.2,6.3,205,3.94,8.1,13.15,.,0.0000,.0000094,.0000134
AgMet,15min,evanston,130,12JAN2019:02:45:00,12.46,-3.74,-4.02,-3.19,-4.67,75,76,75,0.0960,-9.87,5.1,5.7,204,5.89,7.0,13.15,.,0.0000,.0000067,.0000105
AgMet,15min,evanston,130,12JAN2019:03:00:00,12.45,-3.31,-3.80,-3.13,-4.23,75,76,75,0.0980,-9.64,6.7,5.5,202,4.52,9.0,13.15,.,0.0000,.0000058,.0000096
AgMet,15min,evanston,130,12JAN2019:03:15:00,12.45,-3.62,-3.08,-2.64,-3.74,76,76,75,0.0960,-8.82,7.1,6.9,207,5.18,9.6,13.15,.,0.0000,.0000113,.0000155
AgMet,15min,evanston,130,12JAN2019:03:30:00,12.44,-3.87,-3.61,-3.25,-4.05,75,76,75,0.0950,-9.45,6.7,7.2,202,6.54,8.8,13.15,.,0.0000,.0000127,.0000169
AgMet,15min,evanston,130,12JAN2019:03:45:00,12.44,-5.40,-4.92,-3.87,-5.46,74,75,74,0.0870,-10.98,4.9,5.5,199,4.29,6.6,13.15,.,0.0000,.0000068,.0000107
AgMet,15min,evanston,130,12JAN2019:04:00:00,12.43,-5.59,-5.30,-4.85,-5.71,74,75,74,0.0860,-11.37,3.5,4.0,232,23.68,5.7,13.15,.,0.0000,-.000001,.0000016
AgMet,15min,evanston,130,12JAN2019:04:15:00,12.43,-5.03,-5.10,-4.36,-5.65,75,75,74,0.0890,-11.12,6.0,4.6,210,7.21,8.3,13.15,.,0.0000,.0000018,.0000051
AgMet,15min,evanston,130,12JAN2019:04:30:00,12.42,-5.59,-5.08,-3.99,-5.77,75,76,74,0.0860,-11.11,6.1,6.7,213,10.51,8.3,13.15,.,0.0000,.0000111,.0000152
AgMet,15min,evanston,130,12JAN2019:04:45:00,12.42,-8.78,-7.24,-5.59,-8.97,73,74,72,0.0720,-13.66,4.2,5.0,197,14.00,7.5,13.14,.,0.0000,.0000053,.0000089
AgMet,15min,evanston,130,12JAN2019:05:00:00,12.41,-9.33,-9.17,-8.66,-9.64,72,72,72,0.0700,-15.78,5.4,4.5,199,2.83,7.2,13.13,.,0.0000,.0000035,.0000067
AgMet,15min,evanston,130,12JAN2019:05:15:00,12.4,-8.78,-8.83,-8.41,-9.40,72,73,72,0.0720,-15.33,4.9,5.6,210,6.67,7.2,13.13,.,0.0000,.0000081,.0000117
AgMet,15min,evanston,130,12JAN2019:05:30:00,12.4,-8.29,-8.75,-8.23,-9.21,72,73,72,0.0740,-15.27,4.8,4.7,202,3.90,6.1,13.12,.,0.0000,.0000041,.0000074
AgMet,15min,evanston,130,12JAN2019:05:45:00,12.39,-7.43,-7.54,-7.18,-8.35,73,73,73,0.0780,-13.89,4.5,4.7,207,9.33,5.9,13.13,.,0.0000,.0000037,.0000070
AgMet,15min,evanston,130,12JAN2019:06:00:00,12.39,-8.78,-7.83,-7.00,-8.90,73,73,72,0.0710,-14.28,4.0,4.3,222,11.82,5.7,13.13,.,0.0000,.0000016,.0000047
AgMet,15min,evanston,130,12JAN2019:06:15:00,12.38,-10.62,-9.96,-8.78,-10.62,71,72,71,0.0640,-16.73,4.9,4.3,202,4.00,6.4,13.13,.,0.0000,.0000031,.0000062
AgMet,15min,evanston,130,12JAN2019:06:30:00,12.37,-11.48,-10.68,-10.00,-11.48,71,72,70,0.0610,-17.50,4.8,5.0,216,5.15,5.9,13.12,.,0.0000,.0000065,.0000098
AgMet,15min,evanston,130,12JAN2019:06:45:00,12.37,-9.33,-10.44,-9.27,-11.48,71,72,70,0.0700,-17.17,5.2,4.8,214,5.26,6.8,13.12,.,0.0000,.0000054,.0000086
AgMet,15min,evanston,130,12JAN2019:07:00:00,12.36,-8.04,-9.08,-8.04,-9.57,72,73,72,0.0750,-15.63,6.9,6.0,204,5.24,8.8,13.13,.,0.0000,.0000099,.0000135
AgMet,15min,evanston,130,12JAN2019:07:15:00,12.36,-8.71,-8.10,-7.30,-8.77,73,73,72,0.0720,-14.55,6.6,6.8,201,3.77,8.1,13.13,.,0.0000,.0000123,.0000161
AgMet,15min,evanston,130,12JAN2019:07:30:00,12.36,-11.36,-10.32,-8.59,-11.36,71,72,70,0.0620,-17.13,7.7,7.2,199,3.77,9.2,13.13,.,0.0930,.0000137,.0000174
AgMet,15min,evanston,130,12JAN2019:07:45:00,12.36,-11.72,-12.02,-11.36,-12.34,70,71,70,0.0610,-19.01,7.7,7.7,199,3.49,9.0,13.12,.,1.6977,.0000152,.0000187
AgMet,15min,evanston,130,12JAN2019:08:00:00,12.35,-11.72,-11.81,-11.29,-12.34,70,71,70,0.0610,-18.74,8.0,7.9,200,3.23,9.4,13.12,.,6.6279,.0000164,.0000199
AgMet,15min,evanston,130,12JAN2019:08:15:00,12.34,-12.15,-11.92,-11.17,-12.58,70,71,70,0.0590,-18.91,7.0,7.7,196,4.36,9.2,13.12,.,12.4535,.0000461,.0000910
AgMet,15min,evanston,130,12JAN2019:08:30:00,12.49,-12.21,-12.27,-11.91,-12.77,70,70,69,0.0580,-19.35,5.7,6.1,205,4.72,7.9,13.11,.,24.2674,.0000524,.0000919
AgMet,15min,evanston,130,12JAN2019:08:45:00,13.92,-10.12,-11.32,-10.06,-12.15,69,70,68,0.0640,-18.76,5.9,5.7,204,4.10,7.2,13.12,.,139.0698,.0001002,.0001436
AgMet,15min,evanston,130,12JAN2019:09:00:00,14.41,-8.65,-9.30,-8.59,-10.12,69,69,69,0.0690,-16.73,6.1,6.1,203,4.69,7.7,13.13,.,203.9535,.0001695,.0002217
AgMet,15min,evanston,130,12JAN2019:09:15:00,14.27,-8.59,-8.65,-8.09,-9.26,69,69,68,0.0690,-16.12,5.2,5.6,205,8.10,7.5,13.14,.,224.4186,.0001936,.0002463
AgMet,15min,evanston,130,12JAN2019:09:30:00,14.25,-8.10,-8.19,-7.85,-8.65,69,70,69,0.0720,-15.66,3.3,4.3,217,10.14,5.3,13.15,.,236.1628,.0002102,.0002575
AgMet,15min,evanston,130,12JAN2019:09:45:00,14.25,-4.84,-7.01,-4.78,-8.28,70,71,70,0.0850,-14.11,3.9,3.4,205,5.58,5.0,13.16,.,230.3488,.0002229,.0002660
AgMet,15min,evanston,130,12JAN2019:10:00:00,14.24,-3.00,-3.84,-3.00,-4.84,72,72,71,0.0940,-10.66,4.4,4.2,199,6.02,5.3,13.17,.,279.6512,.0003007,.0003561
AgMet,15min,evanston,130,12JAN2019:10:15:00,14.23,-1.35,-2.32,-1.28,-3.13,72,72,71,0.1030,-9.13,3.0,3.8,229,7.80,4.2,13.18,.,322.5581,.0003751,.0004338
AgMet,15min,evanston,130,12JAN2019:10:30:00,14.24,2.16,-0.52,2.28,-1.59,73,75,72,0.1250,-7.15,2.8,2.9,214,15.72,3.9,13.20,.,344.6512,.0004461,.0005039
AgMet,15min,evanston,130,12JAN2019:10:45:00,14.25,1.91,2.20,3.45,1.42,74,75,73,0.1220,-4.23,3.5,3.0,200,5.47,5.5,13.21,.,379.5349,.0005418,.0006083
AgMet,15min,evanston,130,12JAN2019:11:00:00,14.24,3.13,2.38,3.19,1.79,74,74,73,0.1300,-4.08,3.5,3.8,211,4.39,5.3,13.22,.,405.8140,.0005745,.0006496
AgMet,15min,evanston,130,12JAN2019:11:15:00,14.24,6.08,4.72,6.08,3.13,75,76,74,0.1530,-1.42,3.0,3.2,202,6.79,4.2,13.23,.,424.7674,.0006652,.0007430
AgMet,15min,evanston,130,12JAN2019:11:30:00,14.24,5.22,6.57,8.29,5.22,76,78,74,0.1440,0.53,2.9,2.8,204,11.06,3.9,13.24,.,443.8372,.0007535,.0008347
AgMet,15min,evanston,130,12JAN2019:11:45:00,14.22,6.44,5.73,6.57,5.09,75,76,75,0.1550,-0.42,4.0,3.4,203,5.02,5.5,13.25,.,459.5349,.0007499,.0008350
AgMet,15min,evanston,130,12JAN2019:12:00:00,14.21,8.71,6.92,8.77,6.14,76,77,75,0.1750,0.93,4.4,4.4,201,3.96,5.9,13.25,.,471.6279,.0007700,.0008657
AgMet,15min,evanston,130,12JAN2019:12:15:00,14.19,10.24,9.90,10.86,8.65,77,77,76,0.1840,4.14,4.3,4.2,195,4.68,5.7,13.26,.,480.0000,.0008679,.0009705
AgMet,15min,evanston,130,12JAN2019:12:30:00,14.19,13.50,11.56,13.50,10.00,77,78,76,0.2140,5.73,3.2,3.9,194,7.73,4.4,13.26,.,484.1860,.0009315,.0010386
AgMet,15min,evanston,130,12JAN2019:12:45:00,14.2,15.03,13.14,16.26,10.86,75,78,72,0.2240,6.68,1.4,2.2,163,21.82,2.0,13.27,.,483.0233,.0010408,.0011423
AgMet,15min,evanston,130,12JAN2019:13:00:00,14.19,14.78,14.21,15.76,12.02,75,79,73,0.2180,7.86,0.4,0.9,235,40.18,1.3,13.29,.,478.7209,.0011153,.0012042
AgMet,15min,evanston,130,12JAN2019:13:15:00,14.19,11.10,13.23,14.84,10.97,72,74,70,0.1800,5.85,1.2,0.4,35,24.42,3.3,13.31,.,468.8372,.0010862,.0011655
AgMet,15min,evanston,130,12JAN2019:13:30:00,14.16,12.62,11.89,12.81,10.97,72,73,71,0.1910,4.64,2.5,2.1,17,15.44,3.5,13.30,.,458.0233,.0009522,.0010500
AgMet,15min,evanston,130,12JAN2019:13:45:00,14.13,13.23,13.00,13.30,12.62,70,71,69,0.1930,5.01,3.1,2.8,39,6.05,3.7,13.30,.,444.6512,.0009325,.0010446
AgMet,15min,evanston,130,12JAN2019:14:00:00,14.11,13.66,13.37,13.72,13.11,69,70,68,0.1940,5.05,2.7,3.0,52,5.28,3.3,13.30,.,427.7907,.0008993,.0010141
AgMet,15min,evanston,130,12JAN2019:14:15:00,14.09,14.27,14.16,14.52,13.53,67,69,66,0.1920,5.29,2.4,2.5,59,3.60,2.9,13.30,.,407.7907,.0008829,.0009922
AgMet,15min,evanston,130,12JAN2019:14:30:00,14.07,14.02,14.20,14.58,13.90,67,68,66,0.1940,5.22,2.5,2.5,50,7.51,2.9,13.29,.,384.5349,.0008222,.0009300
AgMet,15min,evanston,130,12JAN2019:14:45:00,14.05,14.39,14.13,14.45,13.84,67,68,66,0.1930,5.16,2.3,2.4,44,8.56,3.3,13.29,.,358.3721,.0007539,.0008546
AgMet,15min,evanston,130,12JAN2019:15:00:00,14.03,15.00,15.26,16.10,14.33,64,66,63,0.1920,5.39,1.4,1.8,27,9.93,2.4,13.29,.,329.3023,.0007082,.0007995
AgMet,15min,evanston,130,12JAN2019:15:15:00,14.02,15.24,15.28,15.92,14.63,63,66,60,0.1990,4.94,1.3,1.3,164,60.29,2.2,13.29,.,301.7442,.0006331,.0007097
AgMet,15min,evanston,130,12JAN2019:15:30:00,14.01,15.48,15.97,17.81,14.68,63,66,58,0.2000,5.47,1.3,1.3,220,19.60,1.8,13.29,.,271.5116,.0005568,.0006306